Theta_e
317 318 317 316 316 315 315 315 316 316 316 319 321 320 316 317 322 323 318 315 314 312 311 310 308 308 307 307 306 305 305 304 303 303 303 303 303 302 303 304 305 306 307 309 310 311 311 312 312 312 313 314 314 314 314 314 315 315 316 317 317 318 320 323 325 326 327 327 327 327 328 329 329 327 326 326 325 325 324 324 326 328 328 326 323 325 327
316 316 315 314 314 314 314 313 314 314 315 315 315 315 314 314 316 316 313 312 311 310 309 308 307 306 305 305 304 304 304 303 303 303 302 302 302 302 302 302 303 304 305 307 309 310 310 311 311 312 313 313 313 313 313 313 314 314 315 315 316 317 318 319 321 323 325 326 327 327 327 329 328 327 327 326 324 324 324 325 326 327 327 325 323 325 327
316 315 314 314 313 313 313 313 313 314 314 314 314 314 313 313 312 310 309 310 309 308 307 306 305 305 304 304 303 302 302 302 302 302 302 302 302 301 301 302 302 303 304 305 306 307 308 309 310 311 312 312 312 312 313 313 313 314 314 314 315 316 316 317 318 320 323 325 326 327 326 327 328 328 328 326 324 324 324 324 326 326 326 323 322 325 326
316 314 314 314 314 314 313 313 312 313 313 313 312 312 313 313 312 311 311 311 308 306 306 305 304 304 303 303 302 302 301 301 301 301 301 301 301 301 301 302 302 302 302 302 302 303 304 306 308 309 310 311 311 311 311 312 312 313 314 314 314 314 315 316 316 317 320 322 324 326 326 327 327 328 328 326 324 324 324 324 325 325 324 321 321 323 325
316 315 315 316 317 319 317 313 312 312 311 312 311 311 311 311 312 313 314 311 307 305 305 304 303 303 302 302 302 301 300 300 300 300 301 301 301 302 302 302 302 302 302 302 301 301 302 303 304 306 307 308 309 310 310 311 312 313 313 313 313 313 313 314 315 316 318 320 323 325 326 326 326 327 327 325 323 324 324 324 326 325 322 321 322 324 325
317 315 316 318 320 320 316 311 311 311 310 310 311 310 309 309 309 310 309 307 305 305 304 303 302 302 301 301 301 300 300 300 300 299 300 301 301 302 302 302 302 302 302 302 302 301 302 303 303 304 305 307 307 308 309 310 311 312 312 312 312 313 312 312 313 314 316 319 321 323 324 326 326 326 327 325 323 324 324 325 326 324 321 322 324 325 325
317 315 316 320 320 316 311 308 308 309 308 308 308 308 307 307 307 306 306 305 304 303 302 302 301 300 300 300 300 300 300 300 299 299 299 300 301 301 301 302 302 302 302 302 302 302 302 303 303 304 304 305 306 307 308 309 310 310 311 311 311 312 312 311 311 312 314 316 319 322 323 325 325 326 327 326 324 325 325 325 325 323 322 324 325 325 325
316 316 317 318 316 311 309 309 309 309 309 309 309 308 307 306 307 306 305 304 303 302 302 301 300 300 300 300 300 300 300 300 300 299 299 300 300 300 301 301 302 302 302 302 302 302 302 302 302 302 302 303 304 305 306 307 308 309 310 310 311 311 311 311 311 311 312 313 317 321 323 323 323 325 326 326 325 325 326 325 324 324 324 325 325 325 325
314 315 314 313 313 311 311 311 310 309 310 310 310 310 307 306 306 306 304 303 303 302 301 301 300 300 300 300 300 300 300 300 300 300 300 300 300 300 300 300 300 301 302 302 302 302 302 301 301 301 301 301 301 302 303 304 306 307 308 309 309 310 310 310 310 310 311 311 313 318 321 322 321 323 326 326 325 325 325 324 324 324 323 323 324 324 323
311 313 313 312 313 313 312 311 309 308 308 308 309 310 308 305 305 306 304 303 303 302 302 301 301 301 301 300 300 300 300 300 300 300 300 300 300 300 300 299 299 300 301 301 302 302 301 301 301 301 301 301 301 300 301 302 303 304 305 306 307 308 309 310 309 309 310 310 311 313 316 318 318 318 322 325 326 325 325 324 324 323 321 322 322 322 321
311 313 313 312 313 312 310 309 308 307 308 308 309 311 310 305 304 305 305 303 303 302 302 302 303 303 303 300 300 300 300 300 300 300 300 300 300 300 300 300 300 300 300 300 300 300 300 300 300 300 300 301 301 301 301 301 301 301 301 302 304 306 307 308 308 309 309 310 310 310 311 312 312 312 314 320 325 325 324 323 323 321 319 320 321 320 319
312 312 311 311 311 310 307 307 307 307 307 308 310 314 311 304 303 305 305 304 303 302 303 303 303 303 302 300 300 300 300 299 300 300 300 300 300 300 300 300 300 300 300 300 299 299 300 300 300 299 299 300 300 301 302 302 301 301 300 300 302 304 305 307 307 308 308 309 309 310 310 309 308 307 306 310 317 321 321 321 321 318 316 317 319 318 317
311 310 309 308 308 308 307 306 306 307 308 309 312 312 308 302 302 304 304 304 304 303 304 303 301 300 300 300 300 300 300 300 300 300 300 300 300 300 300 300 300 301 300 300 300 300 300 300 300 300 300 300 300 300 301 301 302 301 301 300 300 301 303 305 306 306 307 308 308 309 309 308 308 306 304 304 307 311 313 315 317 316 314 314 316 315 314
307 307 307 308 308 307 305 305 305 306 309 312 310 306 303 302 302 303 304 304 303 303 303 302 300 300 300 300 300 300 300 300 300 300 301 301 300 300 300 300 300 300 300 300 300 300 300 300 300 301 301 300 300 300 299 300 301 301 301 301 300 300 301 302 304 305 305 306 307 308 308 308 307 307 306 305 305 306 308 310 312 313 312 311 312 312 311
307 307 308 311 311 306 303 305 306 306 308 308 304 301 302 302 301 302 302 302 302 302 301 300 300 300 300 300 301 301 301 301 301 301 300 300 300 300 300 300 300 300 300 300 300 300 300 300 300 300 300 299 299 300 299 299 299 299 300 301 300 300 300 300 301 302 303 304 305 306 307 307 307 307 307 307 306 307 307 308 309 311 312 312 311 311 312
307 309 308 308 307 303 302 306 306 304 304 303 302 301 302 301 301 301 301 300 301 301 300 300 300 300 301 301 301 301 301 301 300 300 300 300 300 300 299 299 299 299 299 299 299 299 299 300 300 299 298 298 298 299 300 300 299 299 299 300 300 301 300 299 299 300 301 302 303 304 305 305 305 305 305 305 306 306 306 306 306 307 309 311 311 310 311
305 306 305 303 303 302 302 304 303 302 302 302 302 302 301 300 301 301 300 299 300 300 300 299 300 300 301 301 301 301 301 300 300 300 299 299 299 299 299 299 299 299 299 298 298 298 298 299 299 298 298 298 298 298 299 300 300 299 299 300 300 301 301 300 299 298 299 300 302 302 302 303 304 304 303 304 304 304 304 304 304 304 305 306 307 307 307
303 303 303 302 302 302 302 302 302 302 302 302 302 302 301 301 301 301 300 300 299 299 300 300 300 301 301 301 301 301 300 300 300 300 299 300 300 300 300 299 299 299 299 298 298 298 298 298 299 298 298 298 298 298 299 299 300 300 300 300 300 301 301 301 300 299 298 299 300 302 302 302 302 303 303 303 303 303 303 303 303 303 303 304 304 305 305
304 303 302 302 302 301 301 301 301 302 301 301 302 301 301 301 300 300 300 300 300 300 301 301 301 301 301 301 301 300 300 300 300 300 300 300 300 299 299 298 298 299 299 298 298 298 298 298 298 298 298 298 298 298 298 299 299 300 300 300 300 300 300 301 301 300 299 298 299 301 302 303 302 302 302 302 302 302 302 302 302 303 303 303 303 304 304
304 303 302 302 302 301 301 301 301 301 301 301 301 301 301 301 301 301 301 301 301 301 301 301 301 301 300 300 300 300 300 300 300 300 300 299 299 298 297 297 297 298 298 298 298 297 297 298 298 298 298 298 298 297 298 298 299 299 300 300 299 299 300 300 301 300 300 299 299 299 300 301 302 302 302 302 302 302 302 302 302 302 302 302 302 302 302
303 303 302 302 302 301 301 301 301 301 300 301 301 301 301 301 301 301 301 301 301 300 300 300 300 300 300 300 300 300 300 299 299 299 299 298 297 296 296 296 296 297 298 298 297 297 297 297 298 298 298 298 298 297 297 298 298 299 299 299 299 299 299 299 300 300 300 300 300 299 298 298 299 300 300 301 301 302 302 302 302 302 302 302 301 301 301
303 303 302 301 301 302 301 301 301 301 301 301 301 301 301 301 301 301 301 301 300 300 300 299 299 299 299 299 299 299 299 299 299 299 298 297 296 296 295 295 294 295 297 297 297 297 298 298 298 297 298 298 298 298 297 297 297 298 299 299 299 298 298 299 299 300 300 300 299 300 299 299 298 298 297 298 298 299 299 300 301 301 301 301 301 301 301
302 302 302 301 301 301 301 301 301 301 301 301 301 301 301 301 300 300 300 300 299 299 299 299 299 299 299 299 299 299 299 299 299 298 297 297 296 295 295 294 294 294 295 296 297 297 298 298 298 297 297 298 298 298 298 297 297 297 298 299 299 298 298 298 299 299 300 299 299 299 299 299 299 299 298 298 297 297 297 297 297 298 299 299 300 300 299
301 302 302 301 301 301 301 301 301 301 301 300 300 300 300 300 299 299 299 298 298 298 298 298 298 298 298 298 298 298 298 298 298 297 297 296 296 295 295 295 294 294 294 295 295 295 296 297 298 298 297 297 298 298 298 298 298 297 297 298 298 298 298 298 298 298 299 299 299 299 299 299 299 299 299 299 299 298 298 297 297 297 297 298 298 298 298
302 302 301 301 301 301 301 301 300 300 300 300 300 300 300 299 299 299 299 298 298 298 298 298 298 298 298 298 298 298 298 298 298 297 297 296 296 296 295 295 295 294 293 294 293 294 295 297 297 298 297 297 297 298 298 298 298 298 298 298 298 298 298 297 297 297 297 298 298 299 299 299 299 299 299 299 299 299 299 298 297 297 297 297 297 297 297
301 301 301 301 301 300 301 301 300 300 300 300 300 300 300 300 299 299 299 299 298 298 298 298 298 298 298 298 298 298 298 298 298 297 297 296 296 296 296 295 295 294 293 294 294 294 295 296 297 297 297 296 296 296 296 296 297 298 298 297 297 298 298 298 297 297 297 297 298 298 298 298 298 298 298 298 298 298 298 298 298 297 296 296 296 297 297
301 301 301 301 301 301 301 301 300 300 300 300 300 300 300 300 300 300 299 299 298 298 298 298 298 298 298 298 298 298 298 298 298 297 297 297 297 296 296 296 295 294 294 294 295 296 296 296 296 296 295 295 295 296 295 295 296 298 298 297 296 297 298 298 297 297 297 297 298 298 298 298 298 298 298 298 298 298 298 298 298 297 297 296 296 296 297
302 302 301 301 301 301 301 301 301 301 300 300 300 300 300 301 300 300 300 299 299 299 299 299 298 298 298 298 298 298 298 298 298 297 297 297 297 296 296 296 295 294 294 295 296 296 296 295 296 295 294 293 293 294 295 295 296 297 298 298 297 297 298 298 297 296 297 297 297 297 297 297 297 297 297 297 297 297 297 297 297 297 297 297 297 297 296
302 302 302 301 301 301 301 301 302 301 301 301 301 301 300 300 300 300 299 299 299 299 299 299 299 299 298 298 298 299 299 298 298 298 297 297 297 296 296 296 295 294 294 295 295 296 295 295 296 295 294 293 294 294 295 295 296 297 299 298 297 298 298 298 297 296 296 297 297 297 297 296 297 297 297 297 296 296 296 296 296 296 296 296 297 297 297
302 302 302 301 301 302 302 302 302 301 301 302 302 301 301 300 300 300 299 299 299 299 299 299 299 299 299 299 299 299 299 299 298 298 297 297 296 296 296 296 295 295 294 294 295 296 295 296 296 294 293 294 295 295 295 296 296 297 298 298 298 298 298 297 297 296 296 296 297 297 297 296 296 296 296 296 296 296 296 296 296 295 295 295 295 295 296
302 302 302 302 302 303 302 301 301 301 301 302 302 302 301 301 300 300 299 299 299 299 299 299 299 299 299 299 299 299 299 299 298 298 297 297 296 296 296 296 296 295 294 295 295 295 295 295 295 293 292 295 296 296 296 296 297 297 298 298 298 298 298 297 296 296 296 296 297 297 297 297 297 296 296 296 296 296 295 295 295 295 295 294 294 294 295
302 302 301 301 302 302 302 301 302 301 301 302 302 301 301 300 300 300 300 299 299 299 299 299 299 299 299 299 299 299 299 298 298 298 297 297 296 296 296 296 296 295 295 295 295 295 295 295 294 292 292 295 297 296 296 297 297 297 298 298 298 298 298 297 296 296 297 297 296 297 297 297 297 297 296 296 296 296 295 295 295 295 294 294 294 294 295
301 301 300 300 301 302 302 301 301 301 301 301 301 301 300 300 300 300 300 300 299 300 300 300 299 299 299 299 299 299 299 298 298 298 297 297 296 296 296 296 295 295 295 295 295 295 295 295 293 292 293 296 297 297 297 297 297 297 298 297 297 297 298 297 297 297 297 296 296 296 297 297 297 296 296 296 295 295 295 295 295 295 294 294 293 293 294
300 300 300 300 300 300 301 301 301 300 300 300 300 300 300 300 300 300 300 299 300 300 300 300 300 300 300 299 299 299 299 298 298 297 296 296 296 296 296 296 295 295 295 295 296 296 295 294 293 292 293 296 297 297 297 297 297 297 297 297 297 297 297 298 298 297 297 296 296 296 296 296 296 296 296 296 295 296 295 295 295 295 294 293 293 293 293
300 300 300 300 300 300 300 300 300 300 300 300 300 300 300 299 300 299 299 299 299 300 299 300 300 299 299 299 299 299 299 298 298 298 297 296 296 296 296 296 295 295 295 296 296 296 295 294 293 293 294 295 296 296 296 297 298 297 297 297 297 297 297 298 298 298 297 297 296 296 296 296 296 296 296 296 296 296 296 295 295 295 294 294 293 293 292
300 300 300 300 300 300 300 300 300 300 300 300 299 300 300 299 299 299 299 299 299 299 299 300 299 299 299 299 299 299 299 299 299 299 298 298 297 296 296 296 295 295 296 296 296 296 295 294 293 293 294 294 294 293 292 293 296 297 297 297 297 297 297 298 298 298 297 297 296 296 296 296 296 296 296 296 296 296 296 295 295 294 294 294 293 293 292
301 301 301 301 301 300 300 300 300 300 300 299 299 300 299 299 299 299 299 299 299 299 299 299 299 299 299 299 299 299 299 299 299 299 298 298 298 297 297 297 296 295 296 296 296 296 295 294 293 293 293 294 294 293 292 291 292 294 297 297 297 297 297 298 298 297 297 296 296 296 296 296 296 296 296 296 296 296 296 295 295 294 294 294 293 292 292
301 301 301 301 301 300 300 300 300 300 299 299 299 299 299 299 299 299 299 299 299 299 299 300 300 299 299 299 299 299 299 299 299 299 299 298 298 298 298 298 296 295 296 296 296 296 296 294 293 293 293 294 294 293 292 291 289 291 295 297 297 296 297 297 298 297 297 297 297 296 296 296 296 295 295 296 296 295 295 295 294 294 294 294 293 292 292
300 300 300 300 300 300 300 300 299 299 299 299 299 299 299 299 299 299 299 299 299 299 299 299 299 299 299 299 299 299 299 299 299 299 299 299 298 298 298 298 297 296 296 296 296 296 296 295 294 293 293 293 293 292 292 290 289 290 294 297 297 296 296 297 297 297 297 297 297 297 296 296 296 295 295 296 295 294 294 294 294 294 294 293 293 293 292
300 300 300 300 300 299 299 299 299 299 299 299 299 299 299 299 299 299 299 299 299 299 299 299 299 299 299 299 299 299 299 299 299 299 299 299 298 298 298 298 297 297 297 297 297 297 296 295 294 293 293 293 292 291 291 290 288 290 294 297 297 296 296 296 296 296 297 297 297 297 296 296 296 296 296 296 295 294 293 293 293 293 293 293 293 293 293
300 300 300 299 299 299 299 299 299 299 299 299 299 299 299 299 299 299 299 299 299 299 299 299 299 299 299 299 299 299 299 299 299 299 299 299 299 299 299 298 298 298 298 298 297 297 297 295 294 294 294 293 292 291 291 290 288 288 292 296 297 296 296 296 295 296 296 296 296 296 296 295 295 296 296 295 295 294 294 293 293 293 293 293 293 293 293
299 300 299 299 299 299 299 299 299 299 299 299 299 299 299 299 299 299 299 299 299 299 300 300 299 299 299 299 299 299 299 299 299 299 299 299 299 299 299 299 298 298 298 297 297 297 296 295 294 294 294 294 293 293 293 292 290 288 289 294 296 296 295 295 295 295 295 295 295 295 295 295 296 296 296 295 295 294 294 293 293 293 293 293 293 293 293
300 299 299 299 299 299 299 299 299 299 299 299 299 299 299 299 299 299 299 299 299 299 299 299 299 299 299 299 299 299 299 299 299 299 299 299 299 299 299 299 299 298 298 298 298 297 296 294 294 294 294 294 294 294 294 294 292 289 288 292 295 295 294 293 294 294 294 294 294 294 295 295 295 295 296 296 295 295 294 293 293 293 293 293 293 293 293
300 300 299 299 299 299 299 299 299 299 299 299 299 299 299 299 299 299 299 299 299 299 299 300 299 300 299 299 299 299 299 299 299 299 299 299 299 299 299 299 299 298 298 298 297 296 295 294 294 294 294 294 294 294 293 294 293 290 288 290 294 295 294 293 293 293 293 294 294 294 294 295 295 295 295 295 295 295 294 293 293 293 293 293 293 293 293
300 299 299 299 299 299 299 299 299 299 299 299 299 299 299 299 299 299 299 299 299 299 299 299 300 299 299 299 299 299 299 299 299 299 299 299 298 298 298 298 298 298 298 297 296 295 295 294 294 294 294 294 294 294 294 293 292 289 288 290 293 294 294 293 293 293 293 293 294 294 294 294 294 295 295 295 295 295 294 294 293 293 293 293 293 292 292
300 300 299 300 299 299 299 299 299 299 299 298 298 299 299 299 299 299 298 298 299 299 298 299 299 299 299 299 299 299 299 299 299 299 299 298 298 298 297 298 298 297 297 297 296 295 295 294 294 294 294 294 293 293 293 292 291 290 290 291 293 293 293 293 293 293 293 293 294 294 294 294 294 295 295 295 295 295 294 294 293 293 293 293 293 293 293
300 300 300 299 299 299 299 299 299 298 298 298 298 299 299 299 299 299 299 299 299 299 299 299 299 299 299 299 298 298 298 298 298 298 298 298 298 297 297 297 297 297 297 296 296 295 295 295 294 294 294 294 294 293 293 292 291 291 292 293 293 293 293 293 292 292 292 292 293 293 294 294 294 294 294 294 294 294 294 294 293 293 293 293 293 293 293
300 299 299 299 299 299 299 299 298 298 298 298 298 299 299 299 299 299 299 299 299 299 299 299 298 298 298 298 297 297 297 297 297 297 297 297 297 297 297 297 297 297 296 296 296 296 295 295 294 294 294 294 294 294 293 293 292 292 292 293 293 293 292 292 291 291 291 291 291 292 294 294 294 294 294 294 294 294 294 294 293 293 293 293 293 293 293
300 300 299 299 299 299 299 299 298 298 298 298 298 298 298 298 298 298 298 298 298 298 298 298 298 298 297 297 296 296 296 296 296 297 297 297 297 297 297 297 297 296 296 296 296 296 295 295 294 294 294 294 294 293 293 293 293 292 292 293 293 293 293 292 291 291 290 290 291 292 294 294 294 294 294 294 294 294 294 294 293 293 293 293 293 293 294
300 299 299 299 299 299 299 298 298 298 298 298 298 298 298 298 298 298 298 298 298 298 298 298 298 297 296 296 295 295 295 296 296 297 297 297 297 297 297 297 297 296 296 296 296 296 295 294 294 294 294 294 294 293 293 293 293 293 293 293 293 293 293 292 292 291 291 291 292 293 294 295 294 294 294 294 294 294 294 293 293 293 293 293 293 293 293
300 299 299 299 299 299 298 298 298 298 298 298 298 298 298 298 298 298 298 298 298 298 298 298 298 297 296 295 295 295 295 296 296 297 297 297 297 297 296 296 296 296 296 296 295 295 294 294 294 294 294 294 294 294 293 293 293 293 293 293 293 293 293 292 292 292 292 292 292 292 293 293 293 293 294 294 294 294 294 293 293 293 293 293 292 292 293
299 299 299 299 299 299 299 298 298 298 298 298 298 298 298 297 297 298 298 298 298 298 297 297 298 297 297 296 295 295 295 295 296 296 296 296 296 296 296 296 295 295 295 295 295 295 294 294 294 294 294 294 294 294 294 293 293 293 293 293 293 293 293 293 292 292 292 292 292 292 292 291 291 291 292 292 293 294 294 294 293 293 293 293 292 292 293
Wind_Speed
8 8 9 10 11 9 8 9 7 7 9 10 8 5 2 4 4 3 7 10 8 6 7 7 7 8 8 9 11 12 11 11 12 14 16 17 18 20 22 23 23 24 24 23 24 25 26 27 27 27 27 27 27 28 28 29 28 27 26 25 23 21 18 17 16 16 17 17 16 16 17 19 18 16 17 22 25 26 28 28 27 26 23 19 19 20 22
9 7 8 11 12 11 10 11 9 9 11 11 10 8 8 9 8 6 11 13 9 5 6 8 10 11 10 11 13 13 12 12 13 15 17 17 18 20 21 22 23 23 24 24 24 25 26 26 27 27 27 28 28 28 29 30 30 30 29 28 27 25 22 19 18 17 17 16 16 16 17 19 20 18 19 23 26 27 29 29 27 25 23 22 21 22 24
5 5 7 10 12 13 12 10 8 7 9 9 8 7 8 10 10 9 12 12 7 5 7 11 12 12 13 14 13 13 13 13 14 15 16 17 18 19 19 21 21 22 23 23 24 25 25 25 25 25 25 25 26 26 27 29 30 30 29 28 28 27 25 23 21 19 19 18 16 15 16 18 21 20 20 25 28 29 30 30 28 25 24 24 24 24 26
2 2 5 9 12 14 12 9 8 7 6 5 5 5 4 4 7 9 9 6 4 4 9 12 12 13 14 13 12 13 14 13 14 15 15 16 17 17 18 19 20 21 22 23 23 24 24 24 24 24 24 24 24 25 27 27 26 26 26 27 27 28 28 27 25 22 20 20 18 16 17 18 21 22 22 27 30 30 31 31 29 27 26 26 26 26 28
2 2 1 3 6 7 6 5 4 4 4 5 6 6 7 5 3 5 4 4 5 7 9 10 9 10 12 12 12 12 12 13 14 15 15 15 16 16 17 18 19 19 20 21 22 23 23 23 24 24 23 23 24 25 25 25 24 23 24 26 27 29 30 29 28 25 21 19 18 18 18 18 20 23 25 28 31 31 31 31 30 30 29 28 27 28 30
4 4 3 3 3 3 1 2 1 2 5 8 9 7 8 7 5 4 5 7 8 7 8 9 10 11 13 14 13 13 11 12 14 15 16 16 16 16 17 17 18 18 19 19 20 21 22 22 22 22 22 22 23 23 23 22 23 23 23 24 26 28 31 33 31 29 24 19 18 18 18 17 19 24 27 28 30 32 32 32 32 32 31 30 30 31 31
4 1 3 3 1 0 1 3 4 6 8 11 13 10 9 9 8 9 10 9 9 10 12 15 18 18 17 17 16 15 14 13 13 15 16 17 17 17 18 18 18 18 19 19 20 21 22 21 21 22 22 22 22 22 23 23 23 23 23 24 25 26 29 33 35 33 28 22 18 17 17 17 18 23 28 28 29 31 33 34 33 34 33 33 33 32 30
3 1 3 2 2 1 4 4 4 5 5 7 9 8 8 7 5 7 9 9 12 15 15 17 20 21 20 19 18 16 15 13 14 15 15 16 17 17 18 18 18 18 18 19 20 20 21 22 23 24 24 24 24 24 24 25 25 24 24 25 26 26 28 31 35 36 31 24 19 17 17 15 14 21 27 28 28 32 35 35 34 36 36 36 35 33 31
2 3 2 2 3 2 4 2 1 2 2 2 2 3 3 5 4 7 10 9 12 14 14 17 19 18 17 16 14 14 15 13 12 12 13 14 15 15 16 16 16 16 16 17 19 20 21 23 24 25 25 26 26 26 26 26 25 25 25 26 26 27 28 29 32 36 34 27 19 15 15 13 14 21 28 30 29 32 37 36 35 36 36 35 34 32 31
1 4 3 3 1 2 2 2 2 3 4 3 1 3 3 3 4 9 13 10 12 14 14 16 15 9 8 7 6 9 13 12 11 11 11 12 13 14 14 15 15 16 16 16 17 19 21 23 24 24 25 25 26 28 28 27 27 26 27 27 26 26 26 26 27 31 35 33 24 14 9 9 15 19 25 29 30 33 37 39 37 36 36 35 35 33 31
2 4 3 2 2 1 1 1 1 4 5 1 1 2 2 1 4 8 15 14 14 17 16 15 10 2 3 2 1 7 11 11 11 12 12 13 13 14 14 15 16 16 17 17 17 18 20 22 23 23 23 24 25 27 27 27 28 28 28 28 27 25 25 23 22 24 29 33 32 22 9 3 10 14 19 27 32 35 38 39 39 39 39 38 36 34 33
3 3 2 1 1 1 1 1 3 5 4 2 2 1 2 2 3 6 15 16 16 17 16 11 3 2 3 6 5 8 11 11 12 13 13 14 13 14 14 14 15 16 17 19 19 20 20 20 20 21 22 23 24 25 26 26 27 28 28 27 26 24 22 21 20 20 23 28 32 30 21 11 7 9 13 21 31 36 38 40 41 40 39 38 38 35 33
4 4 2 1 0 1 0 3 5 5 2 2 2 1 3 5 4 6 13 15 15 14 11 7 5 7 11 14 12 12 12 12 13 14 14 14 13 14 14 14 14 15 17 19 20 20 20 20 20 20 22 23 24 24 24 25 26 26 26 26 26 24 22 21 19 20 20 21 25 29 29 23 15 12 12 16 25 33 36 39 42 41 38 37 38 35 33
3 3 2 1 0 0 2 4 4 3 2 2 2 4 7 9 8 8 11 13 12 10 9 12 17 19 18 17 15 13 13 13 14 13 13 13 14 14 15 15 15 16 16 17 18 20 20 21 21 21 23 25 25 24 24 24 23 23 23 25 25 25 25 23 22 21 21 18 17 19 24 27 26 22 18 18 22 28 32 34 37 39 35 32 32 31 30
2 3 3 2 2 2 4 3 2 3 1 4 8 11 11 10 11 12 12 12 12 13 17 22 23 21 17 15 13 12 11 12 13 13 14 15 15 16 17 17 18 18 18 18 18 19 19 20 21 22 24 26 25 24 23 22 20 19 20 22 23 25 25 25 23 22 22 20 16 14 15 19 23 25 22 20 19 22 25 27 29 31 30 26 24 25 25
1 2 1 1 1 4 4 1 3 4 7 12 16 16 14 12 13 15 16 15 16 21 25 25 21 18 16 13 12 11 11 12 14 16 17 18 18 17 17 18 18 19 20 20 20 19 18 18 20 22 25 26 25 23 22 21 20 18 18 18 20 23 25 25 24 22 21 21 20 17 14 12 13 18 21 20 19 19 20 22 24 25 25 23 21 22 22
3 4 3 3 6 8 8 11 13 13 15 16 16 17 18 16 16 17 19 21 22 24 25 22 18 16 14 12 12 12 13 15 17 18 18 18 16 15 14 14 14 16 16 16 17 17 17 17 18 21 23 25 25 24 21 19 18 18 17 17 18 20 23 25 24 22 19 20 20 20 19 16 13 14 17 18 18 18 18 18 20 22 23 21 20 20 20
6 8 8 8 9 12 14 16 16 16 16 15 15 17 18 18 18 19 21 23 23 21 20 18 17 15 14 13 14 14 15 17 17 15 14 12 11 11 10 10 10 10 11 13 14 15 15 15 16 18 21 23 24 24 21 18 16 16 17 18 18 19 21 23 24 23 20 18 17 17 19 19 18 17 16 15 15 14 14 14 13 14 16 17 16 15 15
3 4 6 8 9 11 12 14 15 15 15 16 16 18 19 20 21 21 20 21 20 17 16 16 16 15 15 15 16 15 15 14 12 10 10 9 10 10 10 10 10 9 9 12 14 14 15 15 15 16 18 20 22 22 20 18 16 15 15 17 19 19 20 20 21 23 23 20 17 15 15 15 16 16 16 16 15 14 14 14 13 11 11 12 12 12 12
4 5 7 11 12 12 12 14 16 17 17 18 19 20 21 21 20 20 19 18 17 16 15 15 16 16 16 16 15 14 12 11 10 9 10 10 10 10 9 10 11 10 8 9 11 13 14 14 14 15 15 17 19 21 19 18 16 15 15 16 18 19 19 19 18 20 22 22 21 19 16 14 14 14 14 13 13 14 13 12 13 14 14 13 13 12 13
7 7 10 13 12 10 9 12 16 18 19 21 22 22 22 21 20 19 18 16 17 17 17 17 17 17 16 14 13 12 11 10 10 9 9 8 8 9 9 10 10 8 7 8 9 12 13 14 14 14 13 14 16 19 20 19 18 16 14 14 16 18 19 18 17 16 18 20 21 21 19 17 16 15 15 13 12 12 12 10 9 10 12 13 13 11 10
3 4 10 10 7 7 9 14 17 18 19 21 21 20 19 18 17 17 17 17 17 16 16 16 15 14 14 13 11 10 9 9 8 7 7 7 8 10 11 11 10 8 7 8 9 11 13 14 13 12 12 12 13 16 19 19 19 17 13 12 15 18 19 18 16 14 14 15 17 18 19 19 18 16 16 16 15 13 12 10 8 7 7 7 7 7 6
6 12 14 12 10 12 15 18 19 19 19 20 20 20 19 18 18 19 19 19 18 16 15 14 13 12 12 11 10 9 8 7 6 6 6 7 9 12 13 13 12 9 8 8 9 11 12 13 12 11 11 11 11 13 16 17 19 18 15 12 14 17 18 18 16 14 13 12 13 14 15 16 17 16 16 16 17 16 14 11 8 6 4 4 4 4 3
15 18 18 17 20 22 22 22 22 21 20 21 21 20 21 21 21 21 20 19 19 17 15 14 12 11 11 10 9 9 8 6 6 6 6 7 10 13 14 14 13 12 10 9 10 11 11 12 12 12 12 11 10 10 13 14 15 17 17 15 14 15 16 16 15 14 13 11 12 13 13 13 14 14 14 15 16 16 15 13 11 9 6 5 4 4 4
22 22 23 25 27 28 26 24 23 21 20 20 20 20 20 20 20 19 18 17 16 16 14 13 12 11 10 9 8 8 6 5 4 4 4 6 10 12 13 14 14 13 11 10 10 9 9 10 11 12 12 13 12 12 13 13 13 13 15 16 15 15 15 14 13 13 13 11 10 11 11 11 11 11 12 13 13 14 14 13 12 11 9 8 7 7 6
28 28 28 27 26 26 24 22 21 22 22 21 20 19 19 18 18 17 16 15 14 14 13 12 12 10 9 8 7 6 5 3 3 3 3 6 9 11 13 14 14 13 10 9 8 8 8 9 10 11 12 13 14 15 15 15 12 10 11 14 15 14 14 13 12 13 13 12 11 10 10 9 8 9 10 10 11 12 12 11 11 11 11 10 9 8 7
28 28 28 25 22 22 23 22 22 24 23 21 20 18 16 15 14 14 13 13 13 11 10 10 10 9 7 6 5 4 3 2 2 3 1 5 9 11 12 14 15 13 10 7 7 8 10 10 10 12 15 16 17 16 16 16 13 8 7 10 13 13 13 12 11 12 13 13 12 12 12 10 9 8 9 9 9 9 10 10 10 10 10 10 10 8 7
26 27 27 24 22 24 25 24 23 23 21 20 19 17 14 13 12 11 11 12 11 9 8 8 7 6 6 4 2 1 1 0 2 2 1 4 8 10 11 12 14 13 10 7 6 8 10 11 12 16 20 21 19 17 16 15 12 7 5 8 11 12 12 10 8 8 10 11 12 13 13 12 11 10 10 9 9 9 9 9 9 9 8 8 9 9 8
24 23 22 22 23 25 23 21 20 20 18 18 16 14 14 13 11 11 11 11 9 8 7 6 5 5 4 3 2 1 1 2 3 2 2 5 7 8 9 10 12 11 9 8 8 8 11 13 15 20 22 20 17 15 15 15 12 5 4 7 9 10 10 9 6 6 7 8 9 11 11 12 12 12 11 11 11 11 9 9 9 9 8 8 7 7 7
23 20 19 18 20 20 19 19 19 18 17 16 15 13 12 11 10 10 10 9 9 8 6 6 5 4 3 3 2 0 2 2 2 2 3 6 7 7 7 9 10 10 8 7 8 9 11 13 17 20 21 18 15 14 15 14 10 3 2 5 8 10 10 9 7 5 5 6 8 8 8 10 11 12 12 12 12 12 11 10 10 9 9 9 8 6 5
22 18 16 16 17 18 18 18 18 16 16 15 14 13 12 11 10 9 9 8 8 7 6 5 5 5 4 3 2 2 2 1 1 2 5 6 6 6 6 8 10 10 8 7 8 9 11 14 17 20 19 16 15 15 14 12 7 3 0 4 7 9 9 9 8 6 5 6 8 7 6 7 9 11 11 12 12 12 12 12 12 11 11 12 10 6 4
23 19 17 16 16 18 18 17 16 16 16 15 14 13 13 11 10 9 8 8 8 8 7 6 6 5 5 3 2 2 1 1 3 5 6 5 5 5 5 6 9 10 8 6 7 9 11 14 18 19 18 16 16 15 13 10 6 3 3 4 6 8 9 8 8 7 5 5 7 8 7 7 8 9 10 10 11 12 12 13 14 13 12 12 10 7 5
22 20 19 18 19 19 18 18 17 16 15 14 12 12 11 10 8 8 7 7 8 8 7 6 6 6 5 3 1 1 3 4 6 7 7 6 4 4 3 5 7 9 7 6 7 9 12 15 17 18 16 14 14 13 11 8 5 4 4 6 8 9 8 7 8 7 5 4 5 7 7 6 7 8 9 10 11 12 13 13 14 12 11 11 10 8 6
21 21 20 19 19 18 17 16 16 16 15 13 12 11 10 10 9 8 6 5 6 7 6 5 5 5 3 1 1 3 4 5 6 6 6 5 4 3 3 4 6 7 6 6 7 9 11 13 15 16 14 12 13 12 10 7 6 6 7 9 10 10 9 7 7 7 5 3 4 7 7 6 7 8 9 10 11 12 13 13 13 12 11 11 11 10 9
19 20 18 17 16 14 13 14 17 18 16 15 13 13 12 10 8 6 3 3 5 6 5 5 5 5 3 1 1 3 4 4 5 6 5 4 4 3 3 4 5 5 5 6 7 8 10 12 12 14 13 11 11 12 11 9 8 7 8 9 10 10 9 7 8 8 6 4 4 6 7 7 7 7 8 10 11 12 13 13 12 11 10 10 11 13 12
18 18 17 16 15 12 11 14 17 16 14 13 13 13 11 9 7 5 3 4 5 4 3 4 5 5 2 1 1 1 2 4 5 5 4 4 4 3 3 4 5 5 5 6 6 6 9 10 11 12 12 10 10 12 13 11 9 8 8 8 9 10 10 7 6 7 6 4 3 4 6 7 8 8 8 9 10 12 14 13 11 10 9 8 9 13 13
17 17 17 17 16 14 14 15 16 15 13 13 13 12 11 9 7 5 5 6 5 3 2 4 5 4 1 1 2 2 2 4 5 5 5 5 5 4 4 6 7 7 6 6 5 6 8 9 9 10 10 9 9 11 13 13 11 8 7 7 9 11 10 6 4 5 5 4 4 5 7 8 9 9 9 9 10 12 13 12 11 9 8 6 8 12 12
16 16 16 16 17 17 18 17 15 14 13 13 12 11 9 8 6 5 5 6 5 3 3 4 4 3 2 3 3 3 3 4 4 5 5 5 5 6 7 7 7 7 6 5 4 6 8 8 8 9 10 9 10 12 14 14 13 10 6 5 7 9 8 4 3 4 5 6 7 8 9 9 9 9 8 9 10 11 12 11 10 8 6 5 8 10 10
19 19 19 19 20 19 18 16 13 12 12 12 12 11 9 7 5 3 3 4 5 4 3 3 4 3 4 5 5 4 4 4 4 5 5 6 6 6 7 8 7 6 6 6 6 6 7 8 8 9 10 9 10 12 14 14 13 10 5 2 3 5 6 5 4 5 6 8 8 9 9 8 7 7 7 7 9 11 11 11 9 6 4 4 6 6 6
22 21 19 18 17 15 14 13 12 11 10 9 8 8 8 6 4 2 2 4 6 5 4 4 4 3 3 4 4 4 4 5 6 6 6 7 7 7 8 8 7 7 7 8 8 8 8 8 8 10 10 10 11 12 13 13 12 9 3 0 1 3 3 5 6 7 7 7 7 8 8 7 5 4 5 6 7 9 11 10 8 6 4 4 5 4 4
20 18 17 16 15 14 13 13 11 10 9 7 5 6 7 6 4 3 3 4 5 6 6 6 5 4 4 4 4 4 5 6 6 6 7 7 8 9 9 9 8 8 9 9 9 9 8 7 7 9 11 11 11 12 12 13 12 9 4 2 3 4 4 5 7 7 6 5 5 7 9 8 5 3 4 5 6 8 10 9 7 5 4 4 4 5 5
17 16 15 15 14 14 13 13 11 10 9 7 6 7 8 8 6 5 4 4 5 7 7 6 5 4 4 4 5 5 6 6 6 7 8 8 9 10 11 10 9 9 9 9 10 10 8 6 7 9 11 11 11 11 12 12 12 10 7 4 4 4 5 6 7 6 6 5 6 7 9 9 7 5 4 4 6 7 9 9 7 6 6 5 5 4 4
15 14 14 14 13 13 13 13 11 10 8 8 8 9 10 8 6 5 4 4 5 7 8 7 5 5 5 5 6 6 7 8 8 9 10 10 10 11 12 11 9 9 10 11 11 9 7 6 7 9 10 10 11 12 12 13 13 11 8 6 5 5 5 6 7 6 6 6 6 8 9 10 9 7 6 5 6 6 7 8 7 6 6 6 5 5 5
15 13 13 12 11 11 12 11 10 9 8 8 9 9 8 7 5 4 3 4 5 6 7 6 6 6 6 6 6 6 7 8 8 9 9 10 10 10 11 10 9 10 10 11 9 7 5 6 7 8 9 10 11 12 13 13 12 11 8 6 6 6 6 7 8 7 7 7 8 8 8 9 9 9 7 6 5 6 6 6 5 5 4 4 3 3 4
15 14 13 12 11 10 10 10 9 8 7 7 7 7 7 6 4 3 3 5 6 6 6 6 7 6 6 6 6 7 7 8 8 8 8 9 9 9 10 10 9 9 9 8 7 6 5 6 7 8 9 9 10 12 13 13 12 9 6 5 6 6 7 8 8 8 8 8 8 8 7 7 8 9 8 7 6 5 5 5 5 4 3 2 1 2 4
16 15 14 13 12 10 9 9 9 8 6 6 7 8 7 7 5 4 4 4 4 4 4 5 6 6 6 6 7 7 7 7 7 7 8 9 9 9 9 9 7 6 5 5 5 5 5 6 7 7 8 9 10 12 13 12 10 6 3 2 4 6 8 9 9 9 8 9 9 9 7 6 6 7 8 7 7 5 4 4 4 4 2 1 1 1 3
17 15 13 12 11 10 10 10 9 7 6 7 8 8 7 8 7 6 5 4 4 4 4 4 4 5 5 6 6 7 7 8 8 7 7 7 7 7 7 7 5 5 4 4 3 4 5 6 7 7 7 8 9 11 11 10 8 5 3 4 7 9 10 12 13 12 12 11 11 10 8 6 5 5 6 7 8 7 5 3 3 3 2 2 2 1 0
16 14 12 11 11 12 12 11 10 9 8 8 7 6 7 9 10 9 7 6 6 5 5 4 4 4 5 5 6 7 7 7 7 6 5 6 6 6 6 6 5 5 5 5 4 5 6 7 7 8 8 9 9 10 10 8 7 6 6 7 9 9 10 11 12 13 13 12 11 10 9 8 6 5 5 6 7 7 6 4 3 3 3 4 4 5 4
16 14 12 12 12 12 12 12 11 10 9 8 7 7 8 9 9 8 7 7 7 6 5 5 4 4 5 5 5 6 6 6 6 5 4 4 5 6 6 6 5 5 6 7 7 8 8 9 9 9 9 9 9 9 8 7 7 7 8 9 9 8 8 9 9 10 11 10 8 7 7 6 5 5 5 5 6 6 6 5 4 3 4 4 5 6 6
17 16 14 13 13 12 12 12 12 11 8 7 7 8 8 8 7 7 7 7 6 6 6 5 5 4 5 5 5 5 5 5 5 4 4 3 4 6 7 7 8 8 8 9 9 10 11 11 11 11 11 10 9 8 8 8 8 8 9 10 10 9 8 8 8 8 9 8 6 5 5 5 6 7 6 6 7 7 6 5 5 5 4 4 4 4 5
18 16 15 14 13 13 12 11 11 9 8 8 8 8 7 6 6 7 7 7 6 5 5 5 5 4 4 5 6 6 5 5 4 4 3 4 5 5 6 7 8 10 10 11 11 12 12 12 12 11 11 12 11 10 9 9 9 9 10 10 11 10 8 5 5 6 7 7 5 4 5 7 9 9 9 8 9 8 8 7 7 6 5 4 4 4 5
17 15 13 13 13 12 10 10 10 9 9 9 9 7 5 5 6 7 8 8 7 6 5 5 4 5 5 6 7 6 6 5 5 5 5 5 6 7 7 7 8 9 10 12 12 13 14 14 13 12 12 12 12 13 13 12 11 10 10 10 11 10 8 5 4 5 6 6 6 6 6 7 8 9 9 10 11 10 9 8 7 6 5 4 4 4 6
Wind_Direction
65 81 90 88 87 84 76 71 57 43 49 59 67 69 90 119 121 145 128 106 94 91 84 81 81 75 71 67 65 66 58 45 41 43 44 39 32 33 37 37 36 35 32 30 27 24 21 18 16 15 15 16 15 14 12 9 6 3 359 353 347 341 331 315 306 302 297 291 279 268 260 253 248 244 234 219 210 210 213 215 221 219 207 207 218 215 208
61 58 83 92 92 87 68 58 59 63 65 67 70 71 77 82 79 93 104 96 86 80 77 82 85 81 76 68 59 55 51 44 42 43 40 35 33 34 35 36 37 37 35 33 31 28 23 19 16 13 14 14 13 11 10 8 7 5 1 356 350 344 337 327 315 301 291 289 285 276 269 257 245 240 234 220 210 212 216 219 222 217 211 216 220 215 211
45 37 80 91 91 89 72 48 42 61 68 62 59 65 74 81 83 87 93 93 87 74 79 84 85 80 73 64 53 46 42 42 44 43 40 38 37 36 37 38 38 38 38 36 35 33 30 25 20 16 14 14 12 11 11 8 8 7 4 1 357 349 342 335 326 311 292 280 274 270 271 264 248 238 230 218 210 211 214 218 219 214 213 220 220 212 211
37 26 95 103 101 94 78 50 33 42 59 60 50 39 38 83 120 118 103 99 109 110 99 89 79 73 69 59 52 50 46 44 47 46 43 41 39 38 38 39 38 37 37 37 36 37 36 32 27 22 18 16 13 13 14 12 10 8 6 7 5 359 352 343 336 325 301 281 272 264 260 260 249 234 220 209 207 211 214 214 214 213 215 218 214 207 206
121 206 177 99 97 91 72 45 40 64 93 92 70 40 26 39 112 134 122 122 129 128 117 101 82 72 69 60 56 57 52 49 51 51 49 45 42 42 39 37 37 36 36 37 37 39 39 38 35 30 25 22 20 18 16 12 10 7 7 9 10 8 4 357 349 339 317 291 278 265 254 252 244 227 212 205 206 211 212 210 210 213 214 211 207 204 204
147 214 291 14 64 92 55 337 342 129 119 98 82 55 35 42 62 85 95 108 117 119 116 109 100 88 78 72 70 69 64 58 54 53 54 52 49 48 43 39 39 37 37 38 39 40 40 38 37 34 30 27 26 24 19 14 11 9 8 10 10 11 11 9 3 354 339 316 293 272 256 250 240 223 211 207 209 210 207 204 207 210 208 203 203 204 205
143 205 8 47 123 222 56 47 68 99 105 97 90 70 45 52 76 95 100 108 117 114 111 110 105 97 89 81 76 73 70 66 62 59 58 56 54 52 48 44 42 38 37 36 36 38 39 37 35 33 31 29 27 26 24 22 18 14 13 15 14 13 14 15 12 6 355 339 317 286 261 250 240 223 212 208 211 210 203 201 205 206 200 198 203 206 208
122 70 26 100 150 123 108 92 79 95 96 91 88 68 39 36 63 104 108 111 118 117 115 114 108 102 95 82 72 72 73 70 67 64 61 60 59 57 54 51 47 43 40 37 35 35 36 36 35 34 33 32 30 29 29 28 25 21 19 21 20 19 19 19 18 15 6 351 330 296 261 244 233 221 213 209 209 207 202 200 204 204 200 200 203 206 207
114 101 67 89 110 147 153 131 53 70 47 10 78 89 64 28 48 119 125 121 126 127 126 126 121 108 93 77 63 69 78 77 72 69 67 67 66 64 63 59 55 51 47 43 39 37 36 35 35 33 33 33 33 32 31 31 30 27 25 25 25 23 22 21 21 21 17 8 346 304 261 226 207 211 213 212 209 204 201 200 203 204 203 200 199 201 203
103 108 103 110 139 211 172 127 79 38 11 334 1 108 118 26 42 130 140 137 139 143 144 146 143 119 85 68 46 67 83 87 86 81 77 77 75 71 68 64 60 57 52 47 44 40 38 38 36 34 32 31 32 32 31 30 31 30 30 29 28 26 24 21 21 24 25 24 15 343 283 204 177 189 203 209 208 204 202 202 202 200 196 192 191 195 197
120 115 122 157 196 233 129 118 328 353 358 349 101 95 151 63 37 130 147 148 153 159 163 165 165 125 79 115 61 79 89 95 97 93 88 85 80 74 71 66 62 59 53 50 48 44 41 39 36 34 32 31 32 32 30 29 29 29 29 29 29 29 27 22 20 23 28 32 31 24 10 139 145 151 173 192 201 203 203 202 198 192 187 186 187 188 189
126 110 107 148 195 252 47 14 313 333 352 145 154 298 189 131 51 126 151 158 165 170 173 172 157 42 133 150 122 100 100 100 102 100 93 88 83 78 75 70 66 62 57 53 50 45 39 35 33 32 31 31 32 31 30 30 29 28 27 26 28 31 31 27 23 23 30 37 39 39 40 47 73 97 126 160 181 192 196 194 191 184 178 179 182 181 180
101 98 107 109 231 213 42 337 324 340 25 148 181 231 167 138 99 123 147 159 171 180 187 177 114 104 128 132 123 118 117 111 108 104 97 92 87 82 79 75 70 67 62 57 51 42 36 33 32 30 29 29 30 29 28 30 30 28 26 26 28 30 33 34 31 26 29 37 43 46 48 53 59 59 71 112 145 162 170 176 180 178 171 170 173 171 170
98 99 92 73 157 137 358 342 346 23 66 202 185 130 135 134 125 131 146 157 167 176 168 141 124 119 124 128 130 130 124 114 107 102 97 92 87 81 78 73 68 63 59 55 48 40 34 33 32 29 27 27 27 25 26 27 27 25 25 27 30 31 33 37 38 34 31 34 44 51 52 57 65 67 62 73 103 125 137 148 161 166 164 161 160 156 155
92 77 71 114 168 327 337 329 351 18 34 164 136 121 122 127 127 132 139 146 154 151 136 127 125 125 127 133 135 130 119 108 98 93 90 88 84 79 72 66 60 55 51 48 43 37 31 27 26 25 24 23 21 21 23 22 18 17 21 26 31 34 34 36 39 41 39 36 42 53 58 61 66 69 68 64 71 90 105 114 128 142 148 147 145 144 144
117 114 131 156 87 354 345 147 131 94 123 142 139 129 125 126 129 130 129 131 139 140 133 128 128 130 130 131 127 119 113 104 95 93 91 87 82 77 69 61 54 49 46 44 41 36 29 24 24 25 25 23 20 19 20 19 15 15 18 23 30 37 39 39 38 40 43 42 43 46 53 62 69 71 71 69 63 67 77 84 89 103 118 127 128 127 129
89 101 116 105 72 59 80 111 119 122 131 140 142 136 131 131 132 131 129 130 135 138 136 134 136 136 134 129 121 114 111 107 101 97 92 86 80 73 61 50 42 37 36 36 34 30 25 23 25 26 25 23 22 19 16 14 16 18 19 22 29 36 41 42 40 39 41 45 46 47 47 51 62 71 74 78 77 71 71 72 71 73 84 97 102 102 103
92 79 87 99 87 79 91 108 121 130 136 140 139 134 132 132 133 133 132 133 136 139 139 140 141 140 136 129 121 116 114 112 108 100 91 81 70 55 40 31 26 24 28 32 30 25 21 21 23 24 21 21 22 21 16 13 14 18 22 26 31 35 39 43 43 41 42 45 47 49 49 49 52 56 59 67 76 76 73 75 77 75 77 83 86 86 86
115 80 95 108 99 94 102 112 122 130 133 133 131 126 127 130 131 131 131 132 134 138 138 137 137 134 129 124 122 120 119 114 106 94 79 62 46 36 32 32 30 28 33 36 30 23 20 19 18 16 15 17 23 24 22 19 17 18 23 28 31 33 37 41 43 42 43 47 49 51 55 55 55 57 56 53 54 55 54 56 59 66 79 92 98 99 98
89 100 114 110 104 107 115 120 127 131 130 129 127 124 125 129 129 130 130 128 128 130 129 128 128 125 123 123 122 120 117 110 97 81 65 53 48 48 43 33 27 29 39 38 23 14 14 14 14 14 12 15 23 28 27 23 21 22 27 30 32 34 36 39 44 45 44 46 49 52 58 64 67 70 70 67 63 62 60 55 49 48 54 66 78 86 89
93 100 119 116 104 101 116 128 130 130 129 129 128 127 128 130 131 131 128 124 123 124 125 125 124 123 124 124 120 115 109 99 88 76 65 60 59 52 34 18 14 25 39 33 15 7 6 6 9 15 16 16 22 29 29 23 20 25 32 33 32 32 32 35 41 46 47 48 49 50 52 57 65 71 73 75 77 78 80 79 71 60 56 57 63 69 71
110 132 146 145 121 115 141 144 136 132 131 130 129 130 132 133 134 133 131 129 130 130 129 127 125 123 122 121 117 112 106 98 92 88 83 76 60 39 23 14 11 16 24 22 12 6 5 6 7 15 21 20 20 25 28 25 20 20 25 30 29 28 29 33 37 41 46 49 50 49 49 50 54 62 68 70 69 69 71 74 77 77 76 77 81 84 75
140 152 157 156 136 135 149 149 140 136 134 129 127 130 130 129 129 128 127 128 130 132 131 129 125 121 119 118 115 110 106 107 107 99 86 68 48 31 20 15 11 8 5 5 4 1 2 5 7 10 18 23 20 19 22 23 20 17 14 18 25 27 29 34 37 38 40 43 45 47 50 50 49 52 58 64 64 62 59 58 57 59 67 79 92 101 96
136 150 154 144 133 134 140 141 137 136 135 132 131 132 130 128 127 125 125 125 127 129 129 128 124 120 116 115 114 113 115 116 107 94 79 56 38 27 18 13 10 7 360 354 354 354 354 358 5 10 15 20 22 16 11 12 15 16 14 12 16 22 25 27 31 33 35 40 41 41 43 49 53 53 52 54 58 57 54 51 49 50 58 68 79 93 106
137 145 144 138 134 134 134 135 135 134 133 133 133 132 131 130 130 131 131 128 127 128 128 126 124 122 120 116 115 122 131 130 114 103 83 47 31 22 15 12 13 12 6 1 2 1 355 358 10 17 19 21 22 15 6 2 3 11 15 14 13 17 20 19 20 24 30 37 40 35 32 35 45 49 47 45 48 51 51 49 46 47 54 62 72 86 100
135 140 141 138 137 138 140 143 143 137 133 131 130 132 133 132 133 136 136 134 131 128 127 126 125 123 121 120 121 130 139 146 146 138 95 38 24 18 15 17 18 14 8 10 18 17 8 5 11 15 15 15 14 9 4 359 355 358 10 15 14 14 15 15 18 27 34 37 37 36 33 31 31 35 37 40 46 50 49 46 45 47 51 55 60 72 89
139 144 143 139 142 148 148 146 144 141 138 135 133 135 137 136 136 140 143 145 144 136 129 131 132 128 126 128 128 124 115 117 155 158 103 19 15 15 17 20 17 10 5 12 25 23 16 13 15 13 7 2 357 354 352 352 350 346 356 9 13 12 11 12 19 30 36 36 34 31 31 31 29 32 37 43 47 47 42 40 43 47 50 49 46 46 56
144 147 143 140 146 152 147 143 145 147 146 143 140 139 141 143 146 152 155 156 155 146 137 138 140 137 137 145 152 123 67 128 187 189 289 1 11 16 19 19 14 7 3 7 16 19 19 21 18 10 1 354 347 342 341 346 349 341 332 352 5 11 12 13 16 23 29 32 29 25 25 24 21 22 26 28 26 24 26 30 34 38 39 36 30 24 22
147 149 144 138 140 145 147 151 156 156 152 151 151 150 150 149 153 160 162 159 155 152 146 145 144 145 155 181 205 231 296 262 220 226 320 0 13 17 18 16 11 6 4 7 13 17 18 17 11 1 354 350 346 340 339 347 353 338 304 331 353 4 9 9 3 2 13 20 21 21 23 22 16 11 12 14 13 10 10 16 24 29 26 17 8 1 355
147 147 145 143 147 152 158 163 162 160 158 160 163 164 163 161 161 164 166 167 167 165 164 164 168 171 180 193 198 258 338 309 234 254 334 359 12 15 12 6 1 2 6 8 13 18 17 11 3 356 353 356 358 350 346 354 5 0 276 323 347 356 0 358 349 341 351 3 6 9 13 14 12 7 5 8 11 11 7 7 12 17 17 8 356 343 336
157 155 154 156 161 164 166 165 165 166 167 169 173 179 181 183 183 179 180 185 186 183 185 191 198 197 194 201 236 324 345 336 236 307 338 352 0 2 1 354 351 357 5 5 6 14 15 6 358 357 0 9 11 3 359 9 29 68 50 346 350 351 351 349 340 333 338 354 1 2 359 359 3 4 2 4 7 7 4 0 358 359 4 5 2 0 3
166 165 164 166 170 174 174 174 174 175 178 181 185 186 186 192 197 197 199 203 203 202 204 209 217 218 214 223 273 337 16 346 313 319 327 333 336 344 351 344 342 349 0 1 360 6 8 1 358 2 9 15 16 13 15 24 41 69 57 15 357 351 347 338 330 334 352 9 11 9 1 348 349 355 359 1 1 359 357 355 354 355 1 5 6 13 30
164 164 164 166 170 176 182 184 185 186 188 191 192 191 189 188 188 185 186 192 199 205 207 209 217 220 220 228 281 355 351 333 322 317 314 312 316 330 339 332 332 340 350 355 356 1 3 0 0 4 11 15 16 15 18 21 24 30 20 356 343 342 339 322 312 322 342 8 17 16 7 348 340 348 358 3 1 356 352 350 350 352 358 3 4 3 3
164 164 167 169 169 170 176 181 182 178 173 170 172 174 171 164 161 161 163 173 188 193 185 176 183 192 193 198 322 344 341 336 332 327 321 317 316 313 309 315 322 328 339 347 352 360 2 1 1 4 8 13 16 15 12 5 358 356 351 341 335 333 326 300 286 296 306 317 357 9 7 354 342 344 354 0 359 353 348 346 345 345 350 359 6 4 358
164 165 170 176 176 174 172 169 165 161 157 154 154 156 156 156 158 158 158 182 193 184 163 149 157 167 177 217 319 352 356 352 349 344 338 336 333 314 299 306 307 305 316 329 340 356 1 0 1 4 6 11 17 18 13 6 358 353 348 341 337 337 330 303 280 284 291 295 329 351 356 356 350 343 344 349 349 346 343 340 338 339 342 353 4 4 357
173 174 177 182 186 190 184 171 166 163 158 156 158 161 162 165 168 164 164 183 188 179 166 170 176 178 190 235 266 347 5 1 357 352 345 341 339 323 302 296 285 276 291 311 327 352 2 359 358 2 6 12 18 17 12 8 5 0 354 345 337 337 335 316 285 286 294 287 293 322 334 342 344 341 337 338 340 341 339 334 332 334 335 343 0 3 357
189 190 188 191 198 200 189 175 169 167 163 163 167 170 169 168 168 167 172 179 178 161 165 188 191 189 195 241 248 269 313 335 348 355 350 341 334 321 306 298 286 278 289 308 325 351 360 357 354 356 1 6 6 3 2 4 1 353 348 346 339 336 335 316 273 284 304 293 279 295 311 323 331 332 329 330 335 338 336 330 327 327 326 336 357 360 356
180 181 181 181 182 179 173 169 168 169 167 165 167 169 167 163 161 164 178 186 178 154 149 173 186 197 212 230 246 264 280 296 323 343 345 339 331 321 315 311 301 290 294 307 322 343 355 356 351 347 349 352 350 347 351 356 356 349 342 338 337 344 352 343 270 271 291 295 296 302 307 312 322 328 327 327 333 337 335 329 323 318 316 330 352 359 1
156 157 158 158 158 160 163 164 167 171 169 164 163 165 165 157 144 145 188 203 190 179 174 182 196 219 231 234 245 261 271 280 298 315 317 317 319 317 316 317 311 298 300 312 318 327 342 352 350 344 340 339 338 338 342 347 350 351 350 337 329 350 11 15 339 302 289 289 301 314 318 314 318 328 329 325 331 340 342 334 322 311 305 318 340 1 17
155 154 154 155 157 161 164 164 165 167 165 160 161 167 169 164 154 150 212 215 209 216 225 219 217 236 253 252 257 272 285 292 298 295 289 292 302 307 309 311 306 295 299 312 318 322 332 344 348 346 343 339 336 336 338 342 345 348 357 97 278 312 343 357 350 334 310 291 293 313 325 320 314 321 321 316 328 348 353 343 324 311 313 326 334 348 2
157 156 156 158 161 164 166 167 169 169 164 162 169 177 177 180 185 190 200 212 224 234 234 226 229 250 269 268 270 283 296 298 295 285 280 286 295 299 301 305 303 295 292 299 308 316 323 331 339 345 347 346 343 341 340 341 341 339 327 250 248 273 301 328 336 335 331 319 312 323 329 323 309 301 306 310 328 351 359 354 338 319 312 322 332 337 340
160 161 162 162 164 169 172 173 174 174 174 179 190 191 188 187 193 198 199 211 228 234 230 227 235 254 267 272 276 284 291 293 291 286 285 287 289 290 294 300 301 292 283 285 295 306 311 315 326 339 347 350 349 346 344 342 339 332 315 282 265 277 303 319 320 320 328 336 339 342 340 331 316 297 289 301 324 347 359 1 351 328 311 310 317 323 332
165 169 170 169 169 172 174 173 175 181 189 192 193 194 195 197 202 211 215 218 225 228 227 229 240 253 260 271 278 282 284 287 290 291 291 291 289 289 291 293 291 283 278 281 286 291 294 301 316 333 345 352 351 347 342 339 335 328 310 282 267 276 298 311 313 311 312 319 327 339 346 343 332 314 295 293 313 337 354 1 357 336 314 305 305 305 310
170 174 178 180 178 174 175 179 184 188 191 187 184 189 199 204 204 212 225 226 226 226 228 236 249 254 257 267 278 283 287 293 297 298 299 301 301 297 293 289 278 270 272 277 276 273 279 297 312 327 343 352 352 348 342 334 327 321 304 270 252 265 294 312 315 312 308 308 313 324 340 348 340 321 299 288 302 326 343 355 1 351 326 313 321 334 333
175 178 183 188 187 179 178 183 181 177 177 178 179 188 200 203 198 201 221 226 229 235 243 251 256 256 261 273 282 284 290 298 301 303 306 309 311 309 305 297 281 266 262 263 258 255 274 294 305 322 341 350 349 346 341 333 324 317 299 261 249 269 298 314 316 313 313 314 310 310 324 346 342 323 300 282 283 305 327 340 351 354 341 319 344 19 8
180 182 185 189 188 184 180 176 171 167 171 180 184 190 197 199 199 208 223 225 230 246 263 266 261 260 269 280 283 284 287 291 292 296 303 307 311 315 314 303 282 257 246 242 239 250 278 295 301 315 335 345 346 345 344 340 334 330 319 289 288 298 308 312 312 310 314 316 310 302 303 321 333 326 310 290 277 282 303 321 333 342 342 291 189 59 21
181 184 188 190 189 187 184 182 180 177 177 179 184 193 202 206 211 220 230 237 248 254 254 254 257 264 279 290 292 290 290 288 287 292 299 302 307 314 311 294 263 235 216 212 230 264 291 300 302 308 318 328 337 344 348 346 338 328 319 315 314 311 310 311 309 307 307 309 307 299 293 293 303 312 307 295 283 278 279 296 316 315 298 265 251 255 284
182 185 190 193 192 190 188 190 194 196 192 192 201 215 216 214 217 223 229 234 242 243 238 239 257 280 296 301 296 290 286 285 284 285 288 292 299 302 295 276 253 232 219 223 248 277 289 292 293 295 300 307 318 332 343 343 331 319 318 320 320 319 318 318 318 317 315 311 302 289 280 277 280 287 292 291 285 272 259 258 289 296 280 272 276 277 273
186 187 189 192 195 194 193 197 203 204 201 203 217 224 216 209 213 222 227 229 233 236 234 239 260 286 304 309 303 293 287 285 282 276 271 275 282 281 273 262 251 239 238 248 261 269 276 282 283 282 283 290 300 312 322 321 313 310 314 318 321 328 336 338 339 341 340 330 307 282 269 269 276 284 287 286 278 263 247 244 260 276 277 276 277 280 285
186 188 190 194 197 198 200 203 206 207 206 206 212 213 210 211 219 226 225 223 228 234 238 247 268 293 313 323 320 312 302 293 283 272 265 265 271 271 268 261 254 249 252 260 265 266 272 282 286 282 277 277 280 287 295 299 296 297 301 305 309 319 333 345 354 1 1 353 329 286 263 267 280 287 286 278 268 259 251 246 244 247 260 281 291 295 301
189 192 194 196 199 199 201 206 210 212 209 206 205 205 206 215 226 227 223 225 235 243 246 255 272 290 307 319 323 320 313 300 283 271 272 281 286 285 280 270 261 258 260 265 270 274 279 286 291 289 283 278 275 275 278 283 285 287 292 298 303 307 315 331 347 353 356 357 346 309 279 274 277 278 275 272 268 264 262 259 249 239 242 269 294 305 304
191 193 194 196 198 198 200 204 209 208 205 203 205 207 209 216 225 229 230 234 243 250 255 265 280 291 299 309 316 318 315 304 287 277 280 287 290 290 288 280 273 270 270 273 278 282 283 285 288 289 287 286 287 285 279 274 275 280 289 298 303 301 292 284 291 302 309 319 328 325 317 308 301 294 287 282 277 272 270 267 256 236 226 237 263 280 284